This is the latest recevied weather packets stored in our database for station/object KK7PZE-13. If no packets are shown the sender has not sent any weather packets the latest 10 day(s).
| Time | Temp. | Humidity | Pressure | Rain* | Wind** | Luminosity | Snow |
|---|---|---|---|---|---|---|---|
| 1777565759 | 26.11° C | 13% | 1010.8 hPa | 0 mm | - | - | - |
| 1777565162 | 25.56° C | 14% | 1010.8 hPa | 0 mm | - | - | - |
| 1777564558 | 26.11° C | 14% | 1010.7 hPa | 0 mm | - | - | - |
| 1777563960 | 25° C | 14% | 1010.8 hPa | 0 mm | - | - | - |
| 1777563359 | 25° C | 14% | 1010.7 hPa | 0 mm | - | - | - |
| 1777562759 | 24.44° C | 14% | 1010.7 hPa | 0 mm | - | - | - |
| 1777562158 | 23.89° C | 15% | 1010.9 hPa | 0 mm | - | - | - |
| 1777560965 | 22.78° C | 16% | 1010.7 hPa | 0 mm | - | - | - |
| 1777560360 | 22.22° C | 17% | 1010.8 hPa | 0 mm | - | - | - |
| 1777559759 | 21.67° C | 17% | 1010.9 hPa | 0 mm | - | - | - |
| 1777558581 | 20.56° C | 18% | 1010.9 hPa | 0 mm | - | - | - |
| 1777557959 | 20.56° C | 19% | 1011.1 hPa | 0 mm | - | - | - |
| 1777557359 | 19.44° C | 20% | 1010.7 hPa | 0 mm | - | - | - |
| 1777556763 | 18.33° C | 22% | 1010.6 hPa | 0 mm | - | - | - |
| 1777556159 | 17.78° C | 23% | 1010.9 hPa | 0 mm | - | - | - |
| 1777554960 | 15.56° C | 23% | 1010.6 hPa | 0 mm | - | - | - |
| 1777554369 | 15° C | 24% | 1010.4 hPa | 0 mm | - | - | - |
| 1777553759 | 14.44° C | 25% | 1010.4 hPa | 0 mm | - | - | - |
| 1777553162 | 13.89° C | 26% | 1010.4 hPa | 0 mm | - | - | - |
| 1777552559 | 13.89° C | 25% | 1010.2 hPa | 0 mm | - | - | - |
| 1777551959 | 15° C | 24% | 1010.1 hPa | 0 mm | - | - | - |
| 1777551362 | 15° C | - | - | 0 mm | - | - | - |
| 1777551359 | 15° C | 23% | 1010.1 hPa | 0 mm | - | - | - |
| 1777550759 | 15° C | 23% | 1010.1 hPa | 0 mm | - | - | - |
| 1777550159 | 14.44° C | 24% | 1010.2 hPa | 0 mm | - | - | - |
* Rain latest hour (hover to see other rain measurements)
** Current wind speed in m/s (hover to see current wind gust speed)